Weather History for Mackinac Island, MI

Change the Weather History Date:

Friday, June 28, 2013

  Actual Average Record
Temperature  
Mean Temperature 66 °F -  
Max Temperature 72 °F 68 °F 84 °F (1975)
Min Temperature 59 °F 53 °F 42 °F (2003)
Growing Degree Days 16 (Base 50)    
Moisture  
Dew Point 62 °F    
Average Humidity 87    
Maximum Humidity 96    
Minimum Humidity 71    
Precipitation  
Precipitation 0.20 in - - ()
Sea Level Pressure  
Sea Level Pressure 29.63 in    
Wind  
Wind Speed 3 mph (ENE)    
Max Wind Speed 12 mph    
Max Gust Speed 16 mph    
Visibility 9 miles    
Events Rain    
Averages and records for this station are not official NWS values.
T = Trace of Precipitation, MM = Missing Value Source: NWS Daily Summary

Daily Weather History Graph

Daily Weather History Graph

Search for Another Location

Airport:

Trip Planner

Search our weather history database for the weather conditions in past years. The results will help you decide how hot, cold, wet, or windy it might be!

Date:

Astronomy

Jun. 28, 2013 Rise Set
Actual Time 5:50 AM EDT 9:32 PM EDT
Civil Twilight 5:12 AM EDT 10:11 PM EDT
Nautical Twilight 4:21 AM EDT 11:02 PM EDT
Astronomical Twilight 3:10 AM EDT 12:12 AM EDT
Moon 12:10 AM EDT (6/28) 12:18 PM EDT (6/28)
Length of Visible Light 16h 58m
Length of Day
15h 41m
Waning Gibbous, 66% of the Moon is Illuminated
Jun 28
Waning Gibbous
Jun 30
Last Quarter
Jul 8
New
Jul 15
First Quarter
Jul 22
Full

Hourly Weather History & Observations

Time (EDT) Temp. Dew Point Humidity Pressure Visibility Wind Dir Wind Speed Gust Speed Precip Events Conditions
12:13 AM 60.8 °F 59.2 °F 94% 29.67 in 10.0 mi ENE 4.6 mph - N/A   Clear
12:33 AM 61.2 °F 59.5 °F 94% 29.68 in 10.0 mi ENE 3.5 mph - N/A   Clear
12:54 AM 61.3 °F 59.0 °F 92% 29.67 in 10.0 mi NE 4.6 mph - N/A   Clear
1:13 AM 60.4 °F 58.5 °F 93% 29.67 in 10.0 mi NNE 4.6 mph - N/A   Scattered Clouds
1:33 AM 59.9 °F 57.7 °F 93% 29.66 in 10.0 mi NNE 4.6 mph - N/A   Scattered Clouds
1:54 AM 59.4 °F 57.7 °F 94% 29.66 in 10.0 mi North 4.6 mph - N/A   Clear
2:33 AM 59.9 °F 58.1 °F 94% 29.65 in 10.0 mi NE 4.6 mph - N/A   Clear
2:54 AM 60.3 °F 58.6 °F 94% 29.64 in 10.0 mi Calm Calm - N/A   Clear
3:13 AM 60.1 °F 58.5 °F 94% 29.64 in 10.0 mi Calm Calm - N/A   Clear
3:33 AM 59.9 °F 58.5 °F 95% 29.64 in 10.0 mi Calm Calm - N/A   Clear
3:54 AM 59.9 °F 58.5 °F 95% 29.64 in 10.0 mi Calm Calm - N/A   Scattered Clouds
4:13 AM 59.7 °F 58.3 °F 95% 29.63 in 10.0 mi WNW 3.5 mph - N/A   Scattered Clouds
4:34 AM 59.7 °F 58.1 °F 94% 29.63 in 10.0 mi Calm Calm - N/A   Mostly Cloudy
4:54 AM 60.8 °F 59.4 °F 95% 29.63 in 10.0 mi Calm Calm - N/A   Overcast
5:13 AM 61.2 °F 59.9 °F 96% 29.63 in 10.0 mi Calm Calm - N/A   Overcast
5:34 AM 61.7 °F 60.3 °F 95% 29.63 in 10.0 mi Calm Calm - N/A   Overcast
5:53 AM 61.9 °F 60.4 °F 95% 29.63 in 7.0 mi Calm Calm - N/A   Overcast
6:13 AM 62.1 °F 60.8 °F 96% 29.63 in 7.0 mi Calm Calm - N/A   Overcast
6:34 AM 62.6 °F 61.2 °F 95% 29.63 in 5.0 mi Calm Calm - N/A   Overcast
6:53 AM 63.3 °F 61.9 °F 95% 29.63 in 10.0 mi Calm Calm - N/A   Overcast
7:13 AM 63.5 °F 61.9 °F 94% 29.63 in 7.0 mi Calm Calm - N/A   Overcast
7:34 AM 63.5 °F 62.1 °F 95% 29.62 in 7.0 mi Calm Calm - N/A   Overcast
7:53 AM 63.9 °F 62.6 °F 96% 29.62 in 7.0 mi Calm Calm - N/A   Overcast
8:13 AM 64.4 °F 63.0 °F 95% 29.62 in 7.0 mi Calm Calm - N/A   Overcast
8:34 AM 64.8 °F 63.0 °F 94% 29.62 in 7.0 mi Calm Calm - N/A   Overcast
8:53 AM 65.3 °F 63.0 °F 92% 29.62 in 10.0 mi Calm Calm - N/A   Overcast
9:13 AM 65.5 °F 63.1 °F 92% 29.62 in 10.0 mi Calm Calm - N/A   Overcast
9:34 AM 65.8 °F 63.5 °F 92% 29.62 in 10.0 mi Calm Calm - N/A   Overcast
9:53 AM 66.6 °F 63.7 °F 90% 29.62 in 10.0 mi Calm Calm - N/A   Overcast
10:13 AM 68.2 °F 64.0 °F 87% 29.62 in 10.0 mi NW 4.6 mph - N/A   Overcast
10:34 AM 68.0 °F 63.5 °F 85% 29.62 in 10.0 mi Calm Calm - N/A   Overcast
10:53 AM 68.9 °F 63.1 °F 82% 29.63 in 10.0 mi Calm Calm - N/A   Overcast
11:13 AM 68.0 °F 62.6 °F 83% 29.62 in 10.0 mi Calm Calm - N/A   Overcast
11:34 AM 69.1 °F 63.3 °F 82% 29.62 in 10.0 mi Calm Calm - N/A   Overcast
11:53 AM 71.2 °F 63.7 °F 77% 29.62 in 10.0 mi NE 3.5 mph - N/A   Overcast
12:13 PM 71.1 °F 62.6 °F 75% 29.62 in 10.0 mi NE 3.5 mph - N/A   Overcast
12:34 PM 70.2 °F 62.6 °F 77% 29.62 in 10.0 mi NE 3.5 mph - N/A   Mostly Cloudy
12:53 PM 70.7 °F 62.4 °F 75% 29.62 in 10.0 mi NNE 3.5 mph - N/A   Mostly Cloudy
1:13 PM 71.1 °F 62.6 °F 75% 29.62 in 10.0 mi NE 4.6 mph - N/A   Clear
1:34 PM 72.5 °F 63.3 °F 73% 29.62 in 10.0 mi ENE 5.8 mph - N/A   Clear
1:53 PM 70.9 °F 63.0 °F 76% 29.62 in 10.0 mi East 4.6 mph - N/A   Scattered Clouds
2:14 PM 71.8 °F 63.0 °F 74% 29.61 in 10.0 mi East 6.9 mph - N/A   Mostly Cloudy
2:33 PM 71.6 °F 63.5 °F 76% 29.62 in 10.0 mi East 8.1 mph - N/A   Scattered Clouds
2:53 PM 70.7 °F 63.5 °F 78% 29.61 in 10.0 mi East 9.2 mph - N/A   Scattered Clouds
3:14 PM 71.6 °F 63.7 °F 76% 29.61 in 10.0 mi East 10.4 mph - N/A   Scattered Clouds
3:33 PM 69.8 °F 63.1 °F 79% 29.61 in 10.0 mi ESE 9.2 mph - N/A   Scattered Clouds
3:53 PM 69.6 °F 63.0 °F 79% 29.61 in 10.0 mi East 9.2 mph - N/A   Mostly Cloudy
4:14 PM 69.8 °F 62.2 °F 77% 29.61 in 10.0 mi ESE 9.2 mph - N/A   Scattered Clouds
4:33 PM 70.0 °F 62.6 °F 77% 29.61 in 10.0 mi ESE 8.1 mph 16.1 mph N/A   Clear
4:53 PM 69.8 °F 61.7 °F 75% 29.62 in 10.0 mi ESE 10.4 mph - N/A   Scattered Clouds
5:14 PM 69.3 °F 61.3 °F 76% 29.62 in 10.0 mi East 6.9 mph - N/A   Mostly Cloudy
5:33 PM 68.5 °F 60.4 °F 75% 29.62 in 10.0 mi ESE 6.9 mph - N/A   Overcast
5:53 PM 70.2 °F 60.3 °F 71% 29.63 in 10.0 mi Calm Calm - N/A   Mostly Cloudy
6:14 PM 69.4 °F 60.1 °F 72% 29.63 in 10.0 mi ESE 5.8 mph - N/A   Overcast
6:33 PM 68.0 °F 61.2 °F 79% 29.63 in 10.0 mi ESE 3.5 mph - N/A Rain Rain
6:54 PM 67.5 °F 62.1 °F 83% 29.63 in 10.0 mi Calm Calm - N/A   Overcast
7:13 PM 67.5 °F 62.2 °F 83% 29.63 in 10.0 mi Calm Calm - N/A   Overcast
7:33 PM 67.1 °F 62.8 °F 86% 29.65 in 10.0 mi NE 11.5 mph - N/A   Overcast
7:54 PM 65.1 °F 62.8 °F 92% 29.64 in 3.0 mi Calm Calm - 0.11 in Rain Rain
8:13 PM 65.3 °F 63.5 °F 94% 29.64 in 3.0 mi Calm Calm - N/A Rain Rain
8:33 PM 65.5 °F 63.5 °F 93% 29.64 in 10.0 mi NE 4.6 mph - N/A Rain Light Rain
8:54 PM 65.3 °F 63.5 °F 94% 29.65 in 4.0 mi NNE 3.5 mph - 0.01 in Rain Light Rain
9:13 PM 65.1 °F 63.5 °F 94% 29.65 in 4.0 mi Calm Calm - N/A Rain Rain
9:33 PM 64.9 °F 63.5 °F 95% 29.65 in 3.0 mi Calm Calm - N/A Rain Heavy Rain
9:54 PM 64.9 °F 63.5 °F 95% 29.65 in 3.0 mi NE 8.1 mph - 0.08 in Rain Heavy Rain
10:13 PM 65.3 °F 63.5 °F 94% 29.65 in 10.0 mi ENE 4.6 mph - N/A   Overcast
10:33 PM 64.9 °F 63.1 °F 94% 29.65 in 10.0 mi NNE 5.8 mph - N/A   Overcast
10:54 PM 64.4 °F 62.2 °F 93% 29.65 in 10.0 mi North 4.6 mph - N/A   Overcast
11:13 PM 64.0 °F 62.1 °F 93% 29.65 in 10.0 mi NNE 6.9 mph - N/A   Overcast
11:33 PM 64.0 °F 62.2 °F 94% 29.65 in 10.0 mi NNE 4.6 mph - N/A   Overcast
11:54 PM 64.0 °F 62.1 °F 93% 29.65 in 7.0 mi NNE 6.9 mph - N/A   Overcast